Terminal Aerodrome Forecast
Issued by NWS Boise, ID

Home | Current Version | Previous Version | Text Only | Print | Product List | Glossary On
Versions: 1 2 3 4 5 6 7 8 9 10 11 12
000
FTUS45 KBOI 292340
TAFBOI
TAF
KBOI 292340Z 3000/3024 31015G25KT P6SM VCSH SCT050 BKN080
     FM300400 31010KT P6SM SCT080
     FM302000 30020G30KT P6SM SCT080=

USA.gov is the U.S. government's official web portal to all federal, state and local government web resources and services.